Hourly Weather Adliswil

Today, 7 March, Sunday

Time Temperature Precipitation Wind Pressure Humidity
00:00 +1°C° 0 mm 1 mps 721 mmHg 78%
01:00 0°C° 0 mm 1 mps 721 mmHg 77%
02:00 0°C° 0 mm 1 mps 721 mmHg 77%
03:00 -1°C° 0 mm 0 mps 720 mmHg 77%
04:00 -1°C° 0 mm 0 mps 720 mmHg 77%
05:00 -1°C° 0 mm 0 mps 720 mmHg 76%
06:00 0°C° 0 mm 0 mps 720 mmHg 75%
07:00 0°C° 0 mm 0 mps 720 mmHg 72%
08:00 +2°C° 0 mm 0 mps 720 mmHg 67%
09:00 +4°C° 0 mm 0 mps 719 mmHg 62%
10:00 +7°C° 0 mm 0 mps 719 mmHg 58%
11:00 +9°C° 0 mm 1 mps 719 mmHg 59%
12:00 +10°C° 0 mm 1 mps 719 mmHg 60%
13:00 +10°C° 0 mm 2 mps 718 mmHg 61%
14:00 +10°C° 0.1 mm 1 mps 718 mmHg 65%
15:00 +10°C° 0.1 mm 1 mps 717 mmHg 68%
16:00 +10°C° 0.1 mm 1 mps 717 mmHg 72%
17:00 +8°C° 0.1 mm 1 mps 716 mmHg 78%
18:00 +7°C° 0.1 mm 1 mps 716 mmHg 83%
19:00 +4°C° 0.1 mm 0 mps 716 mmHg 89%
20:00 +4°C° 0 mm 0 mps 716 mmHg 90%
21:00 +5°C° 0 mm 1 mps 717 mmHg 90%
22:00 +4°C° 0 mm 1 mps 717 mmHg 91%
23:00 +4°C° 0 mm 1 mps 717 mmHg 91%

Tomorrow, 8 March, Monday

Time Temperature Precipitation Wind Pressure Humidity
00:00 +3°C° 0 mm 0 mps 717 mmHg 92%
01:00 +3°C° 0 mm 0 mps 717 mmHg 93%
02:00 +3°C° 0.1 mm 0 mps 716 mmHg 93%
03:00 +3°C° 0.1 mm 0 mps 716 mmHg 93%
04:00 +3°C° 0.1 mm 0 mps 716 mmHg 92%
05:00 +3°C° 0.1 mm 0 mps 716 mmHg 93%
06:00 +3°C° 0.1 mm 0 mps 716 mmHg 93%
07:00 +3°C° 0.1 mm 0 mps 716 mmHg 93%
08:00 +3°C° 0 mm 0 mps 716 mmHg 91%
09:00 +5°C° 0 mm 1 mps 716 mmHg 88%
10:00 +6°C° 0 mm 1 mps 716 mmHg 85%
11:00 +6°C° 0 mm 1 mps 716 mmHg 82%
12:00 +7°C° 0 mm 1 mps 716 mmHg 78%
13:00 +7°C° 0 mm 1 mps 716 mmHg 75%
14:00 +8°C° 0 mm 1 mps 715 mmHg 73%
15:00 +8°C° 0 mm 1 mps 715 mmHg 71%
16:00 +8°C° 0 mm 1 mps 715 mmHg 69%
17:00 +7°C° 0 mm 1 mps 715 mmHg 73%
18:00 +5°C° 0 mm 1 mps 715 mmHg 78%
19:00 +4°C° 0 mm 1 mps 715 mmHg 83%
20:00 +3°C° 0 mm 1 mps 715 mmHg 83%
21:00 +3°C° 0 mm 1 mps 715 mmHg 84%
22:00 +2°C° 0 mm 1 mps 716 mmHg 84%
23:00 +2°C° 0 mm 1 mps 715 mmHg 84%

Day after tomorrow, 9 March, Tuesday

Time Temperature Precipitation Wind Pressure Humidity
00:00 +1°C° 0 mm 1 mps 715 mmHg 84%
01:00 0°C° 0 mm 1 mps 715 mmHg 83%
02:00 -1°C° 0 mm 0 mps 715 mmHg 83%
03:00 -1°C° 0 mm 0 mps 715 mmHg 82%
04:00 -1°C° 0 mm 0 mps 715 mmHg 81%
05:00 -1°C° 0 mm 0 mps 715 mmHg 81%
06:00 -1°C° 0 mm 0 mps 715 mmHg 81%
07:00 -1°C° 0 mm 0 mps 715 mmHg 80%
08:00 +1°C° 0 mm 0 mps 715 mmHg 75%
09:00 +3°C° 0 mm 0 mps 716 mmHg 70%
10:00 +4°C° 0 mm 0 mps 716 mmHg 65%
11:00 +6°C° 0 mm 0 mps 716 mmHg 62%
12:00 +8°C° 0 mm 1 mps 716 mmHg 58%
13:00 +10°C° 0 mm 1 mps 716 mmHg 54%
14:00 +9°C° 0 mm 1 mps 716 mmHg 53%
15:00 +9°C° 0 mm 1 mps 715 mmHg 52%
16:00 +9°C° 0 mm 1 mps 715 mmHg 52%
17:00 +7°C° 0 mm 1 mps 716 mmHg 59%
18:00 +5°C° 0 mm 1 mps 716 mmHg 66%
19:00 +2°C° 0 mm 0 mps 716 mmHg 73%
20:00 +2°C° 0 mm 0 mps 717 mmHg 75%
21:00 +1°C° 0 mm 0 mps 717 mmHg 78%
22:00 0°C° 0 mm 0 mps 717 mmHg 80%
23:00 0°C° 0 mm 0 mps 717 mmHg 81%

10 March, Wednesday

Time Temperature Precipitation Wind Pressure Humidity
00:00 0°C° 0 mm 0 mps 717 mmHg 82%
01:00 -1°C° 0 mm 0 mps 717 mmHg 83%
02:00 -1°C° 0 mm 0 mps 717 mmHg 83%
03:00 -1°C° 0 mm 0 mps 717 mmHg 83%
04:00 -1°C° 0 mm 0 mps 718 mmHg 83%
05:00 -1°C° 0 mm 0 mps 718 mmHg 83%
06:00 -1°C° 0 mm 0 mps 718 mmHg 83%
07:00 -1°C° 0 mm 0 mps 718 mmHg 82%
08:00 +1°C° 0 mm 0 mps 718 mmHg 74%
09:00 +4°C° 0 mm 0 mps 718 mmHg 65%
10:00 +6°C° 0 mm 0 mps 719 mmHg 56%
11:00 +8°C° 0 mm 0 mps 718 mmHg 53%
12:00 +9°C° 0 mm 0 mps 718 mmHg 50%
13:00 +10°C° 0 mm 0 mps 718 mmHg 48%
14:00 +10°C° 0 mm 0 mps 718 mmHg 48%
15:00 +11°C° 0 mm 1 mps 717 mmHg 48%
16:00 +11°C° 0 mm 1 mps 717 mmHg 48%
17:00 +9°C° 0 mm 1 mps 717 mmHg 54%
18:00 +7°C° 0 mm 1 mps 717 mmHg 61%
19:00 +5°C° 0 mm 1 mps 717 mmHg 67%
20:00 +5°C° 0 mm 1 mps 717 mmHg 68%
21:00 +5°C° 0 mm 1 mps 717 mmHg 69%
22:00 +5°C° 0 mm 1 mps 718 mmHg 70%
23:00 +4°C° 0 mm 1 mps 717 mmHg 69%

11 March, Thursday

Time Temperature Precipitation Wind Pressure Humidity
00:00 +4°C° 0 mm 1 mps 717 mmHg 68%
01:00 +3°C° 0 mm 2 mps 717 mmHg 66%
02:00 +4°C° 0 mm 2 mps 716 mmHg 64%
03:00 +4°C° 0 mm 2 mps 716 mmHg 61%
04:00 +5°C° 0 mm 2 mps 716 mmHg 58%
05:00 +5°C° 0 mm 2 mps 716 mmHg 58%
06:00 +5°C° 0 mm 2 mps 716 mmHg 57%
07:00 +6°C° 0 mm 2 mps 716 mmHg 57%
08:00 +7°C° 0 mm 2 mps 716 mmHg 56%
09:00 +8°C° 0 mm 2 mps 716 mmHg 54%
10:00 +10°C° 0 mm 3 mps 715 mmHg 53%
11:00 +11°C° 0 mm 4 mps 715 mmHg 52%
12:00 +12°C° 0 mm 5 mps 715 mmHg 51%
13:00 +14°C° 0 mm 6 mps 715 mmHg 50%
14:00 +14°C° 0 mm 6 mps 714 mmHg 52%
15:00 +14°C° 0 mm 5 mps 714 mmHg 55%
16:00 +14°C° 0 mm 5 mps 713 mmHg 57%
17:00 +12°C° 0 mm 4 mps 713 mmHg 62%
18:00 +11°C° 0 mm 4 mps 713 mmHg 66%
19:00 +10°C° 0 mm 3 mps 713 mmHg 70%
20:00 +8°C° 0.8 mm 4 mps 714 mmHg 76%
21:00 +7°C° 0.8 mm 4 mps 714 mmHg 81%
22:00 +6°C° 0.8 mm 4 mps 714 mmHg 87%
23:00 +6°C° 2.7 mm 4 mps 715 mmHg 89%

12 March, Friday

Time Temperature Precipitation Wind Pressure Humidity
00:00 +5°C° 2.7 mm 4 mps 715 mmHg 91%
01:00 +4°C° 2.7 mm 4 mps 715 mmHg 93%
02:00 +4°C° 1.2 mm 4 mps 716 mmHg 93%
03:00 +4°C° 1.2 mm 4 mps 716 mmHg 92%
04:00 +4°C° 1.2 mm 3 mps 716 mmHg 92%
05:00 +3°C° 0.2 mm 3 mps 716 mmHg 93%
06:00 +4°C° 0.2 mm 2 mps 716 mmHg 93%
07:00 +4°C° 0.2 mm 1 mps 716 mmHg 94%
08:00 +4°C° 0.1 mm 2 mps 717 mmHg 89%
09:00 +5°C° 0.1 mm 2 mps 717 mmHg 84%
10:00 +5°C° 0.1 mm 3 mps 717 mmHg 79%
11:00 +7°C° 0.1 mm 3 mps 716 mmHg 74%
12:00 +8°C° 0.1 mm 3 mps 716 mmHg 70%
13:00 +8°C° 0.1 mm 3 mps 716 mmHg 66%
14:00 +8°C° 0.1 mm 3 mps 715 mmHg 65%
15:00 +8°C° 0.1 mm 3 mps 715 mmHg 63%
16:00 +8°C° 0.1 mm 2 mps 714 mmHg 61%
17:00 +7°C° 0.1 mm 2 mps 714 mmHg 67%
18:00 +6°C° 0.1 mm 1 mps 714 mmHg 72%
19:00 +4°C° 0.1 mm 0 mps 714 mmHg 78%
20:00 +5°C° 0 mm 1 mps 714 mmHg 80%
21:00 +4°C° 0 mm 1 mps 714 mmHg 81%
22:00 +4°C° 0 mm 1 mps 714 mmHg 83%
23:00 +4°C° 0 mm 1 mps 714 mmHg 83%
Show more